Location: Brede
(50.9167°N, 0.6000°E)
Time: 22:19:55
(UTC+00:00)

A-11 Canister half - Pass Details

Date: 03 December 2020
Orbit: 1524 x 1684 km, 47.3° (Epoch: 23 January)

Event Time Altitude Azimuth Distance (km) Brightness Sun altitude
Exits shadow 03:27:01 18° 173° (S) 3,339 10.6 -38.9°
Maximum altitude 03:32:06 27° 134° (SE) 2,827 10.5 -38.2°
Drops below altitude 10° 03:39:57 10° 83° (E) 3,925 11.9 -36.9°
Sets 03:43:42 0° 72° (ENE) 4,897 12.6 -36.4°
